Simultaneous Nadir Overpasses (SNOs) Predictions

Prediction of SNOs between METOP-A and TERRA Satellite Orbit:

Table of predicted SNOs for the next 14.0 days since TLE Epoch: 1/8/2018
Index Date (METOP-A) Time (METOP-A) Lat,Lon (METOP-A) SZA (METOP-A ) Date (TERRA) Time (TERRA) Lat,Lon (TERRA) SZA (TERRA ) Distance(km) Time Diff (sec)
1 01/11/2018 03:40:39 81.38, 173.60 105.77 01/11/2018 03:41:36 81.39, 173.60 105.79 0.27 57
2 01/11/2018 04:31:19 -81.39, -18.69 74.20 01/11/2018 04:31:03 -81.38, -18.88 74.24 3.32 16
3 01/13/2018 23:14:58 81.38,-120.03 105.27 01/13/2018 23:15:51 81.39,-119.89 105.31 2.56 53
4 01/14/2018 00:05:38 -81.39, 47.68 74.70 01/14/2018 00:05:18 -81.39, 47.66 74.71 0.38 20
5 01/16/2018 18:49:16 81.39, -53.29 104.76 01/16/2018 18:50:06 81.39, -53.41 104.77 2.17 50
6 01/16/2018 19:39:57 -81.39, 114.03 75.25 01/16/2018 19:39:33 -81.39, 114.16 75.25 2.07 24
7 01/19/2018 14:23:34 81.39, 13.05 104.16 01/19/2018 14:24:20 81.39, 13.03 104.18 0.84 46
8 01/19/2018 15:14:14 -81.39,-179.23 75.81 01/19/2018 15:13:47 -81.39,-179.38 75.84 2.61 27
9 01/22/2018 09:57:53 81.39, 79.38 103.51 01/22/2018 09:58:35 81.39, 79.42 103.54 0.84 42




NCC Satellite Simultaneous Nadir Overpasses (SNOs) Prediction Service
